GSAT-29 (43698 NORAD) Tracking and Keplerian Element Data

This shows tracking and keplerian element data for the satellite.

Feedback or suggestion? Click here.




ElementValue
Catalog43698
NameGSAT-29
Epoch Orbit28
Epoch Day344.51522846
Epoch Year2018
RAAN282.9288
Inclination0.0289
Eccentricity0.0002515
Argument of Perigee324.0102
Mean Anonmoly72.763
Mean Motion1.00273687
Decay Rate8.9E-07
L11 43698U 18089A 18344.51522846 .00000089 00000-0 00000+0 0 9995
L22 43698 0.0289 282.9288 0002515 324.0102 72.7630 1.00273687 284

Live tracking and technical data element details for GSAT-29 (NORAD 43698). GSAT-29 can be tracked NOW for your location showing map with azimuth and elevation plus other details from your city location.

Track the satellite on the map from your city or location and see movement details for azimuth, elevation, latitude, longitude, range, height, and movement on the map or in text.







IsCatalogInMostPopularTable: catalog: 43698, numindb: 20
Update: records affected: 1



GetName: 43698 GSAT-29

Hit Count: updated at: Tue, 11 Dec 2018 01:55:12 GMT